Location: Adamstown South Public School
(32.9318°S, 151.7012°E)
Time: 15:12:22
(UTC+00:00)

Cosmos 1110 Rocket - Pass Details

Date: 07 June 2020
Orbit: 753 x 781 km, 74.0° (Epoch: 04 July)

Event Time Altitude Azimuth Distance (km) Brightness Sun altitude
Rises 08:13:57 0° 195° (SSW) 3,285 7.3 -16.5°
Reaches altitude 10° 08:16:23 10° 193° (SSW) 2,346 6.5 -17.0°
Maximum altitude 08:21:42 73° 107° (ESE) 811 3.9 -18.1°
Drops below altitude 10° 08:26:56 10° 22° (NNE) 2,298 6.4 -19.1°
Sets 08:29:17 0° 20° (NNE) 3,212 7.2 -19.6°
